Temperature
21 21 20 20 19 19 20 21 22 23 23 23 23 24 24 23 22 21 20 21 22 21 21 20 20 20 20 20 20 20 20 19 19 19 19 19 19 19 19 19 19 19 19 19 19 19 19 19 19
21 21 20 19 19 20 21 22 23 23 23 23 23 23 23 22 20 19 20 21 22 21 21 20 20 20 20 20 20 20 19 19 19 19 19 19 19 19 19 19 19 19 19 19 19 19 19 19 19
21 20 20 18 19 20 22 23 23 23 23 22 22 23 23 22 20 20 21 21 21 21 21 20 20 20 20 20 20 20 19 19 19 19 19 19 19 19 19 19 19 19 19 19 19 19 19 19 19
21 20 20 19 20 22 24 24 24 24 22 22 22 22 23 22 22 21 21 21 22 21 21 20 20 20 20 20 20 20 19 19 19 19 19 19 19 19 19 19 19 19 19 19 19 19 19 19 19
21 20 19 19 22 24 25 25 24 23 21 21 21 21 21 22 22 22 21 22 22 21 21 20 20 20 20 20 20 19 19 19 19 19 19 19 19 19 19 18 18 18 18 19 19 19 19 19 19
21 20 19 20 23 25 25 25 24 22 21 20 20 20 20 21 21 22 22 22 22 21 21 20 20 20 20 20 20 19 19 19 19 19 19 19 19 18 18 18 18 18 18 18 18 19 19 19 19
21 20 21 22 23 24 24 23 23 21 20 20 20 19 20 20 21 21 21 21 21 21 21 20 20 20 20 19 19 19 19 19 19 19 18 18 18 18 18 18 18 18 18 18 18 18 19 19 19
23 20 21 22 24 24 23 22 21 20 19 19 20 19 20 20 20 21 21 21 21 21 20 20 20 20 19 19 19 19 19 19 18 18 18 18 18 18 18 18 18 18 18 18 18 18 18 18 19
24 20 20 22 24 23 23 21 20 19 19 19 20 21 21 20 20 20 20 20 20 20 20 20 19 19 19 19 19 19 19 18 18 18 18 18 18 18 18 18 18 18 18 18 18 18 18 18 18
24 20 22 24 25 24 23 21 20 19 19 19 20 21 21 20 20 20 20 20 19 19 19 19 19 19 19 19 18 18 18 18 18 18 18 18 18 18 18 18 18 17 18 18 18 18 18 18 18
24 22 24 25 25 24 22 20 20 20 19 19 20 21 20 20 20 20 20 20 20 19 19 19 19 19 18 18 18 18 18 18 18 18 17 17 17 17 17 17 17 17 17 17 17 17 17 18 18
25 25 26 25 24 24 22 20 19 19 19 20 20 21 20 20 20 20 20 20 20 19 19 19 19 18 18 18 18 18 18 18 17 17 17 17 17 17 17 17 17 17 17 17 17 17 17 17 17
26 26 26 25 24 23 21 20 19 19 19 19 20 20 19 19 20 20 20 20 20 19 19 19 19 18 18 18 18 18 18 18 17 17 17 17 17 17 17 17 17 17 17 17 17 17 17 17 17
26 26 25 25 24 23 21 20 19 18 19 19 19 19 19 19 19 19 20 19 19 19 19 19 19 18 18 18 18 18 18 17 17 17 17 17 17 16 16 16 16 16 16 16 16 16 16 16 16
26 24 24 24 23 22 22 20 19 19 19 19 19 19 19 19 19 20 19 19 19 19 19 19 18 18 18 18 18 18 17 17 17 17 16 16 16 16 16 16 15 15 15 16 16 16 16 16 16
24 23 22 23 23 22 22 20 19 19 18 18 18 18 18 18 19 19 19 19 19 19 19 18 18 18 18 18 18 17 17 17 17 16 16 16 16 15 15 15 15 15 15 15 15 15 15 15 16
22 22 22 23 23 23 21 20 19 19 19 18 18 18 18 18 18 19 19 19 19 19 19 18 18 18 18 18 18 17 17 17 16 16 16 15 15 15 15 15 14 14 15 15 15 15 15 15 15
22 22 23 22 22 22 21 20 20 19 19 18 18 18 18 18 18 18 18 18 18 18 18 18 18 18 18 18 17 17 16 16 16 16 15 15 15 15 14 14 14 14 14 14 14 14 14 14 15
24 23 23 23 23 21 20 20 20 19 19 18 18 18 18 18 18 18 18 18 18 18 18 18 18 18 18 18 17 17 16 16 16 15 15 15 15 14 14 14 14 14 14 14 14 14 14 14 14
25 23 23 23 23 22 20 20 20 19 19 18 18 18 18 18 17 17 18 18 18 18 18 18 18 18 18 17 17 17 16 16 15 15 15 15 14 14 14 14 14 14 13 13 13 14 14 14 13
24 23 23 22 22 21 20 20 20 19 19 19 19 19 18 18 18 18 18 18 18 18 19 19 18 18 18 17 17 16 16 15 15 15 15 14 14 14 14 13 13 13 13 13 13 13 13 13 13
23 24 24 23 20 19 20 18 19 19 19 19 19 19 19 18 18 18 18 18 19 19 19 19 18 18 18 17 17 16 16 16 15 15 14 14 14 14 13 13 13 13 13 13 13 13 13 13 13
24 24 22 21 19 18 18 18 18 19 18 19 19 19 19 19 19 19 19 19 19 19 19 19 18 18 18 17 17 16 16 16 15 15 14 14 14 14 13 13 13 13 13 13 13 12 12 12 12
24 22 20 18 17 18 18 18 18 18 19 19 19 20 20 20 20 20 20 20 19 19 19 19 18 18 18 17 17 16 16 16 15 15 15 14 14 14 13 13 13 13 13 13 12 12 12 12 12
23 20 19 19 17 18 19 19 18 20 20 20 20 20 20 20 20 20 20 20 20 19 19 19 19 18 18 17 17 17 16 16 15 15 15 14 14 14 13 13 13 13 12 12 12 12 12 12 12
23 21 20 20 19 18 19 19 19 21 22 22 22 22 21 21 21 21 21 20 20 20 20 19 19 19 18 18 17 17 17 16 16 15 15 14 14 14 13 13 13 13 12 12 12 12 12 12 11
24 22 21 19 19 18 18 19 20 22 22 22 22 22 22 22 22 21 21 21 21 21 20 20 20 19 19 18 18 17 17 16 16 16 15 15 14 14 13 13 13 12 12 12 12 12 12 12 11
24 23 19 19 19 19 19 19 19 21 21 21 21 22 22 22 22 22 22 22 21 21 21 20 20 20 19 19 18 18 17 17 16 16 15 15 15 14 14 13 13 13 12 12 12 12 12 11 11
24 23 20 18 18 18 18 19 20 20 21 20 21 23 23 23 23 23 22 22 22 21 21 21 20 20 19 19 19 18 18 17 17 17 16 15 15 14 14 14 13 13 12 12 12 12 11 11 11
23 23 20 20 19 18 18 19 22 21 21 22 22 23 24 24 24 24 23 23 22 22 21 21 21 20 20 19 19 19 18 18 17 17 17 16 15 15 14 14 13 13 12 12 12 12 11 11 11
Wind_Speed
11 8 2 1 2 2 3 4 2 3 2 2 3 5 5 4 4 6 6 16 19 15 16 18 19 19 19 19 19 18 18 18 18 18 17 16 16 15 15 14 13 13 12 12 11 11 10 10 9
9 6 2 2 1 1 4 4 4 3 1 3 2 4 6 7 10 12 10 17 18 16 16 17 20 19 19 19 19 18 18 18 18 17 16 15 15 14 13 13 12 12 11 11 10 10 9 8 8
7 4 2 1 1 3 4 4 4 0 4 3 3 4 5 8 11 7 13 18 15 14 16 19 21 20 20 19 19 18 18 18 17 16 15 14 13 13 12 12 11 11 10 9 9 9 8 7 7
4 2 1 0 5 6 7 7 5 2 6 6 4 4 4 4 7 14 20 18 17 12 16 20 21 21 20 20 19 18 18 17 16 15 14 13 12 12 11 10 10 10 9 8 8 7 7 6 5
2 3 0 3 5 5 6 6 3 5 5 7 7 5 5 6 21 23 20 19 18 13 15 19 21 21 20 20 19 18 17 16 15 14 13 12 11 10 10 9 9 9 9 8 7 7 6 5 3
2 2 0 4 5 4 2 2 7 13 11 9 8 5 4 8 19 20 19 16 16 15 14 18 20 20 20 19 18 17 16 15 14 13 12 10 9 8 8 8 8 8 8 8 7 7 6 5 3
3 1 3 5 5 4 4 5 8 11 11 6 6 3 1 5 11 15 16 16 14 14 13 14 17 18 19 18 17 16 15 13 12 11 9 8 7 7 7 7 7 8 8 8 7 7 6 6 5
5 2 4 5 5 4 3 6 9 10 7 6 4 5 4 6 9 12 13 13 13 11 10 11 13 15 15 15 15 14 13 12 10 9 7 6 5 5 6 7 8 8 8 9 8 8 7 7 7
2 2 5 4 3 1 4 8 7 7 7 3 1 4 6 9 12 13 13 11 11 11 9 8 10 12 13 12 12 12 11 9 8 6 5 4 2 2 4 7 8 8 8 8 9 8 8 8 8
5 4 7 4 1 3 7 9 8 7 7 4 3 5 6 12 13 15 15 14 12 11 9 8 8 9 10 10 10 9 8 7 7 5 4 4 3 2 1 3 6 6 6 6 7 8 8 7 7
6 7 7 3 0 7 9 8 6 10 5 7 11 11 8 11 12 13 12 13 12 11 10 8 8 8 8 7 8 7 7 8 8 7 7 8 7 6 6 4 1 1 3 3 3 4 5 5 5
5 5 2 1 3 7 8 8 5 3 6 9 10 8 7 9 10 13 14 13 12 11 10 9 8 8 8 9 7 8 7 7 8 10 11 10 6 5 5 4 3 2 1 1 1 2 3 4 5
1 2 1 4 9 11 13 10 7 3 4 6 8 8 5 5 9 9 11 12 12 12 10 9 10 9 7 7 6 8 7 8 10 11 13 12 7 4 4 3 4 3 2 1 0 1 1 2 3
2 2 2 3 7 6 11 7 6 5 5 5 4 4 4 5 8 9 10 11 11 11 10 9 9 8 8 6 5 6 8 10 11 11 11 12 10 7 5 4 4 4 3 2 1 0 0 1 1
2 4 6 3 4 4 8 5 2 6 6 5 4 4 3 5 7 11 12 12 12 11 9 9 9 8 8 7 6 7 9 11 9 9 11 11 10 9 6 4 3 5 6 4 3 3 3 2 2
4 4 4 5 2 2 7 1 3 6 6 5 6 5 3 3 6 10 12 13 12 11 10 9 10 9 8 6 6 7 9 10 9 9 10 11 11 10 8 4 4 7 7 5 3 3 3 3 3
4 2 4 5 1 2 4 2 4 6 6 6 6 6 6 5 6 8 9 12 12 11 9 8 9 8 8 6 6 6 7 8 8 9 8 9 10 10 8 5 5 8 6 4 4 4 3 3 3
6 3 3 3 1 4 3 2 3 5 4 5 7 8 7 9 9 9 8 10 10 9 9 9 8 7 7 6 5 4 5 4 6 6 7 8 8 9 9 6 7 8 5 5 4 4 4 2 3
6 3 2 2 2 4 3 3 2 4 4 5 6 8 8 8 9 10 10 11 10 10 9 8 8 7 6 4 4 3 3 3 2 3 6 7 7 8 8 5 5 5 5 5 5 3 4 4 4
2 2 1 1 1 3 3 1 1 3 5 7 9 9 9 8 8 9 9 9 10 10 10 9 8 7 6 4 4 3 3 2 3 3 4 6 6 6 6 5 3 4 4 6 6 5 3 4 4
1 3 4 4 2 4 3 2 1 2 3 5 8 9 9 13 13 12 10 9 9 10 11 11 9 8 7 6 3 3 4 3 3 2 2 3 5 5 6 5 4 3 4 4 4 4 4 3 3
2 4 5 5 4 2 2 1 5 3 3 5 7 9 11 12 12 12 12 11 12 12 11 10 10 9 7 7 6 5 4 3 3 3 3 2 3 4 6 6 5 3 3 3 2 3 3 3 3
3 2 4 5 4 3 3 1 6 2 5 7 9 10 12 13 14 15 15 14 13 13 11 10 10 9 8 7 8 7 5 4 3 3 3 1 1 3 5 7 5 3 2 3 2 2 2 2 1
7 5 6 5 5 4 2 1 5 5 7 7 10 12 13 14 14 15 14 12 12 11 11 10 10 9 9 9 8 8 8 6 5 3 2 1 1 1 3 6 6 4 3 3 2 1 1 0 0
5 5 5 6 6 3 3 1 8 9 7 10 13 14 15 15 14 14 13 13 12 13 13 11 12 10 9 9 9 9 9 8 6 5 4 2 1 1 3 4 5 4 4 4 3 2 2 2 2
2 8 5 3 3 3 2 4 8 9 7 10 12 13 14 15 15 16 16 15 14 14 14 13 13 11 10 10 9 8 9 6 5 5 5 4 4 4 4 5 5 5 5 5 4 3 3 3 3
1 2 5 6 2 1 4 5 8 4 4 8 11 12 14 16 16 17 16 14 14 14 14 14 14 11 11 11 9 9 9 8 7 6 5 4 4 4 5 5 6 5 5 5 5 4 4 4 4
4 4 5 5 4 2 4 4 5 7 7 8 11 14 15 15 15 15 14 14 14 14 13 13 13 13 11 11 10 9 9 9 8 7 6 6 5 5 6 6 6 6 6 6 5 5 5 5 5
1 2 4 3 5 6 4 7 9 12 11 12 14 15 15 15 16 15 14 13 13 12 12 12 12 11 10 10 9 9 9 9 8 7 8 7 6 6 7 7 7 7 7 6 6 7 6 7 7
3 4 5 3 3 5 5 8 9 12 12 12 14 14 14 14 14 13 13 12 12 13 13 13 13 12 12 11 10 10 9 9 8 8 8 8 8 7 7 7 7 7 7 7 7 8 7 7 7
Wind_Direction
162 155 155 65 45 35 275 261 235 293 317 254 187 160 131 102 131 134 120 133 132 133 133 131 132 134 134 133 132 132 130 128 127 126 126 125 124 123 122 121 118 116 113 110 108 104 101 99 94
155 162 143 45 81 337 272 243 258 279 86 82 47 81 82 70 87 109 117 132 131 128 127 127 127 130 132 132 132 132 131 130 129 130 130 130 129 129 127 125 124 121 118 116 114 110 106 102 96
171 179 120 110 206 212 251 248 238 285 55 59 13 11 52 102 113 115 133 135 126 122 124 127 125 127 129 129 128 129 130 131 131 132 133 133 133 133 131 130 130 128 126 125 122 118 114 108 99
161 122 33 151 255 254 244 241 221 137 48 52 57 33 26 99 118 131 138 134 126 122 125 128 127 127 127 127 127 127 128 130 132 133 134 136 137 137 137 136 136 136 135 135 133 130 127 120 107
102 111 111 286 262 260 255 239 186 102 84 59 60 43 10 52 121 133 138 136 130 129 129 131 130 128 128 127 127 128 129 131 133 135 137 139 141 142 143 145 146 147 148 147 147 145 146 144 132
94 119 75 284 281 309 337 106 99 93 97 79 56 28 7 107 128 137 139 137 135 135 133 133 132 131 130 130 130 131 132 134 136 139 141 143 146 149 152 156 158 161 162 164 166 165 165 171 178
159 166 252 280 301 341 17 61 104 111 105 112 129 117 2 119 135 139 137 135 135 135 134 134 135 134 134 135 135 136 137 138 140 142 145 149 156 164 171 176 176 176 177 177 178 182 185 191 201
176 101 312 302 308 335 26 70 92 99 105 124 133 149 172 147 132 130 131 131 133 137 140 138 137 137 138 139 141 141 141 142 142 145 149 157 169 183 191 196 196 194 191 189 191 196 198 204 212
155 74 276 275 303 340 91 94 91 83 108 120 176 188 161 130 130 133 135 132 138 142 144 141 140 143 143 144 144 143 142 142 141 139 141 142 157 191 207 206 204 206 205 204 204 204 205 210 219
151 186 244 241 277 126 110 106 127 124 118 124 168 191 157 133 137 145 148 147 147 148 149 147 144 146 150 146 139 140 133 126 121 117 106 92 78 69 83 192 200 207 212 216 217 216 217 217 225
181 207 244 280 49 117 113 110 130 144 153 180 182 180 158 144 145 152 149 147 147 147 143 142 140 140 135 123 130 125 117 110 103 98 90 78 65 53 50 56 55 228 225 224 233 231 218 209 215
207 240 215 158 92 100 109 124 118 156 186 186 179 165 153 150 154 156 149 146 139 133 124 121 122 120 118 120 118 114 110 102 91 82 81 78 67 53 47 42 35 25 317 222 223 219 222 226 225
300 283 33 106 96 103 106 108 117 123 155 165 159 141 128 145 144 144 138 135 132 125 120 118 118 115 113 108 112 108 108 106 100 88 80 78 70 52 37 33 34 22 16 10 319 233 235 228 236
294 320 358 91 102 107 109 112 111 162 162 144 141 157 159 161 151 137 137 131 129 128 127 122 116 116 112 110 110 111 111 107 101 94 88 79 71 60 43 31 25 18 8 7 16 10 314 305 288
353 353 342 23 86 127 109 75 134 173 169 152 164 156 155 168 164 154 150 141 136 135 131 128 122 116 112 112 112 114 114 112 109 101 88 77 70 64 51 35 19 8 16 29 35 32 40 28 17
3 9 330 315 66 99 92 128 206 182 184 176 168 153 134 168 177 159 152 142 140 140 138 134 128 120 116 115 113 113 112 114 118 107 93 80 74 66 53 41 19 20 32 36 42 42 44 31 21
357 306 290 306 30 92 94 189 194 186 186 174 164 166 160 177 168 162 155 147 145 144 138 130 128 128 124 118 112 107 107 115 126 116 104 93 80 65 61 52 32 35 39 32 37 46 47 24 356
258 252 259 270 315 90 100 188 201 186 174 170 162 158 163 184 175 165 152 144 139 138 138 139 137 135 127 114 99 88 88 106 133 130 124 109 90 74 70 61 43 43 40 28 27 35 31 24 349
217 205 224 229 178 116 147 183 207 168 155 168 164 164 174 176 164 157 155 148 142 141 144 149 146 149 136 124 120 119 127 138 148 153 137 122 104 91 83 72 51 46 46 32 25 31 25 11 5
213 191 216 346 114 124 149 232 232 169 185 181 173 172 174 163 157 160 158 153 155 159 159 161 163 162 156 151 153 157 151 153 155 151 144 139 126 118 109 95 76 57 49 37 36 45 38 9 24
338 194 187 176 101 61 100 359 285 228 179 175 180 176 176 170 167 166 166 169 169 172 174 174 176 172 169 158 130 98 77 69 75 106 156 173 159 146 131 121 105 78 71 58 54 58 64 24 2
290 215 162 135 108 11 57 316 282 226 214 196 190 180 182 175 172 174 174 180 187 188 185 180 180 178 174 159 146 143 141 143 168 172 185 207 190 176 157 144 127 108 92 81 67 75 74 71 21
188 91 79 94 112 66 19 83 291 202 218 218 198 187 184 180 179 182 185 191 194 192 189 187 182 181 177 166 156 144 141 152 153 140 153 211 260 217 180 162 148 137 124 125 102 79 62 87 103
138 81 52 56 70 37 300 148 276 230 212 202 194 191 188 187 188 190 194 194 197 194 191 185 180 184 180 170 163 157 156 158 153 158 177 238 285 239 184 168 162 163 159 161 165 155 113 155 197
123 91 20 360 19 294 280 221 251 246 219 189 188 191 190 190 190 194 197 198 198 194 193 186 180 185 181 173 171 168 167 167 172 185 193 191 192 186 187 171 176 182 191 195 189 195 237 249 252
186 137 155 207 210 276 309 264 263 268 223 185 181 185 187 190 193 198 200 199 197 194 190 184 183 185 182 178 178 174 170 167 173 181 179 185 194 203 194 186 192 202 206 208 198 205 226 220 235
124 164 171 139 107 64 283 284 300 285 169 174 178 183 191 195 197 199 200 197 194 190 187 185 182 183 184 182 178 178 177 175 178 180 177 184 197 197 186 189 198 208 212 215 209 218 232 232 237
164 156 86 100 141 199 275 271 246 240 213 195 192 194 199 197 198 200 197 194 192 188 185 181 180 182 183 182 181 185 186 186 184 182 191 197 205 200 193 201 206 214 220 219 214 223 232 233 241
10 79 101 119 155 153 215 258 225 215 209 202 204 205 204 200 198 197 195 191 184 180 177 178 179 177 180 183 184 181 188 191 189 193 204 207 211 212 210 211 213 219 224 222 217 225 229 232 244
168 183 144 149 234 169 182 257 248 208 211 204 208 209 208 204 198 192 187 180 177 178 179 180 182 183 186 184 181 184 188 189 193 202 211 211 215 218 217 216 218 222 224 220 217 227 229 225 233
Height
1532 1533 1535 1536 1538 1543 1542 1531 1524 1522 1521 1519 1518 1517 1515 1516 1521 1530 1528 1531 1534 1537 1541 1544 1546 1548 1549 1551 1552 1552 1553 1554 1555 1556 1557 1557 1558 1558 1559 1560 1561 1561 1562 1563 1563 1564 1564 1565 1565
1532 1534 1537 1537 1541 1549 1541 1526 1521 1520 1521 1519 1519 1517 1516 1519 1520 1523 1527 1532 1535 1538 1541 1544 1547 1549 1550 1551 1552 1553 1554 1555 1555 1556 1557 1558 1558 1559 1559 1560 1561 1562 1563 1563 1564 1565 1565 1566 1566
1533 1535 1538 1539 1542 1544 1535 1522 1518 1518 1521 1520 1521 1520 1519 1522 1524 1526 1529 1533 1536 1539 1542 1545 1547 1549 1551 1552 1553 1554 1555 1555 1556 1557 1557 1558 1559 1559 1560 1561 1561 1562 1563 1564 1565 1565 1566 1567 1567
1533 1536 1538 1542 1542 1531 1523 1516 1515 1517 1519 1521 1523 1524 1523 1525 1526 1528 1531 1534 1537 1540 1543 1545 1548 1550 1551 1553 1554 1555 1555 1556 1557 1557 1558 1558 1559 1560 1560 1561 1562 1562 1563 1564 1565 1566 1567 1567 1568
1533 1535 1540 1543 1536 1523 1515 1513 1514 1515 1521 1523 1523 1527 1527 1527 1527 1531 1534 1536 1537 1540 1543 1546 1548 1550 1551 1553 1554 1555 1556 1557 1557 1558 1558 1559 1559 1560 1561 1561 1562 1563 1563 1564 1565 1566 1567 1568 1569
1533 1534 1544 1545 1532 1520 1515 1514 1516 1521 1524 1523 1525 1530 1531 1532 1531 1533 1536 1538 1539 1541 1544 1546 1548 1550 1552 1553 1555 1556 1556 1557 1558 1558 1559 1559 1560 1560 1561 1561 1562 1563 1563 1564 1565 1566 1567 1568 1569
1533 1534 1539 1535 1528 1522 1519 1519 1520 1523 1523 1524 1524 1530 1534 1536 1536 1537 1538 1540 1541 1542 1544 1546 1549 1551 1553 1554 1555 1556 1557 1557 1558 1558 1559 1559 1560 1560 1561 1561 1562 1562 1563 1564 1564 1565 1566 1567 1568
1529 1532 1535 1533 1527 1525 1521 1521 1524 1523 1524 1525 1526 1528 1531 1534 1537 1540 1541 1541 1543 1544 1545 1547 1549 1551 1553 1554 1556 1557 1557 1557 1558 1558 1559 1559 1559 1560 1560 1561 1561 1562 1562 1563 1564 1564 1565 1567 1568
1528 1535 1539 1531 1525 1524 1522 1523 1526 1527 1526 1523 1523 1525 1529 1533 1536 1539 1542 1543 1543 1545 1546 1547 1549 1551 1553 1554 1556 1557 1557 1557 1558 1559 1559 1559 1559 1559 1560 1560 1560 1561 1561 1562 1563 1563 1564 1565 1566
1525 1535 1529 1520 1518 1519 1521 1522 1524 1528 1527 1525 1523 1524 1528 1531 1535 1538 1540 1542 1543 1545 1546 1547 1549 1551 1552 1554 1555 1556 1557 1557 1558 1558 1559 1559 1558 1558 1558 1559 1559 1560 1560 1560 1561 1562 1562 1564 1565
1520 1524 1518 1516 1515 1516 1518 1522 1522 1523 1524 1521 1520 1521 1525 1529 1533 1537 1539 1541 1542 1544 1545 1547 1549 1551 1553 1554 1555 1556 1557 1557 1557 1558 1558 1558 1557 1557 1557 1557 1557 1558 1558 1559 1559 1560 1561 1562 1563
1516 1515 1514 1514 1513 1514 1516 1520 1523 1521 1519 1519 1519 1522 1524 1527 1531 1534 1537 1540 1542 1543 1545 1547 1549 1551 1552 1554 1555 1556 1557 1557 1557 1557 1557 1557 1556 1556 1556 1555 1556 1556 1556 1557 1557 1558 1559 1560 1561
1513 1513 1512 1512 1512 1515 1516 1519 1521 1522 1519 1520 1522 1524 1527 1530 1533 1534 1536 1539 1541 1543 1545 1547 1549 1551 1552 1554 1555 1556 1556 1556 1556 1556 1556 1555 1555 1554 1554 1554 1553 1554 1554 1555 1555 1556 1557 1558 1559
1513 1512 1512 1512 1512 1514 1516 1520 1521 1522 1521 1523 1524 1525 1526 1529 1531 1532 1536 1539 1540 1543 1545 1547 1549 1551 1552 1554 1555 1555 1556 1556 1556 1556 1555 1554 1553 1552 1552 1552 1552 1552 1552 1553 1553 1554 1555 1556 1556
1512 1513 1511 1511 1512 1515 1515 1522 1522 1521 1522 1523 1523 1524 1526 1528 1532 1533 1535 1538 1540 1543 1545 1547 1549 1551 1553 1554 1555 1555 1556 1556 1556 1555 1554 1553 1551 1551 1550 1550 1550 1551 1551 1552 1552 1553 1553 1554 1554
1513 1518 1523 1514 1512 1514 1517 1528 1522 1522 1523 1523 1524 1525 1526 1527 1530 1533 1535 1538 1540 1543 1545 1547 1549 1551 1553 1554 1555 1555 1555 1555 1555 1554 1553 1552 1550 1549 1549 1549 1549 1549 1550 1550 1551 1551 1552 1552 1553
1522 1527 1526 1518 1511 1513 1518 1525 1521 1521 1521 1522 1523 1524 1526 1528 1530 1532 1534 1537 1540 1542 1545 1547 1549 1551 1553 1554 1554 1555 1555 1555 1554 1554 1553 1551 1550 1549 1548 1548 1548 1548 1549 1549 1549 1550 1550 1550 1551
1529 1525 1523 1521 1514 1514 1519 1522 1520 1520 1520 1521 1522 1523 1526 1527 1529 1532 1534 1536 1539 1542 1545 1547 1549 1551 1552 1553 1554 1554 1554 1554 1554 1553 1552 1551 1550 1549 1548 1547 1547 1547 1548 1548 1548 1548 1549 1549 1549
1513 1518 1520 1517 1511 1516 1520 1520 1519 1519 1520 1521 1522 1523 1525 1527 1529 1531 1535 1537 1540 1542 1544 1546 1549 1551 1551 1552 1553 1554 1553 1553 1553 1552 1552 1551 1549 1548 1548 1547 1547 1546 1546 1547 1547 1547 1547 1547 1547
1510 1517 1519 1516 1511 1515 1520 1520 1518 1518 1518 1519 1521 1523 1525 1528 1529 1532 1535 1536 1540 1542 1544 1546 1549 1550 1551 1552 1553 1553 1553 1552 1552 1551 1551 1550 1549 1548 1547 1546 1546 1546 1546 1546 1546 1546 1546 1546 1546
1511 1515 1515 1517 1515 1516 1520 1525 1520 1517 1518 1519 1520 1522 1524 1526 1529 1531 1534 1536 1539 1541 1543 1545 1547 1549 1550 1551 1551 1552 1552 1551 1551 1551 1550 1550 1549 1548 1548 1547 1546 1545 1545 1545 1545 1545 1545 1545 1546
1515 1506 1506 1511 1523 1531 1527 1540 1525 1518 1518 1518 1519 1520 1523 1525 1527 1529 1532 1535 1537 1539 1542 1544 1546 1547 1549 1549 1550 1550 1550 1550 1550 1549 1549 1549 1548 1548 1547 1547 1546 1546 1545 1545 1545 1544 1544 1544 1545
1509 1505 1508 1514 1525 1534 1532 1538 1532 1520 1521 1517 1517 1519 1521 1523 1525 1528 1530 1532 1535 1538 1540 1542 1544 1546 1547 1548 1548 1548 1548 1548 1548 1548 1547 1547 1547 1547 1547 1546 1546 1546 1545 1545 1544 1544 1543 1543 1543
1503 1510 1516 1524 1531 1545 1538 1539 1535 1522 1516 1513 1514 1516 1518 1521 1523 1526 1528 1531 1533 1536 1538 1541 1542 1544 1545 1546 1546 1546 1546 1546 1546 1546 1545 1545 1545 1545 1545 1545 1545 1545 1545 1544 1543 1543 1542 1542 1542
1505 1522 1540 1543 1552 1549 1534 1534 1530 1509 1505 1506 1509 1512 1515 1518 1521 1524 1526 1529 1531 1533 1536 1538 1540 1541 1542 1543 1543 1543 1543 1543 1543 1543 1543 1543 1543 1543 1543 1544 1544 1544 1543 1543 1542 1542 1541 1540 1540
1504 1516 1539 1549 1553 1547 1534 1534 1518 1501 1499 1501 1504 1508 1512 1515 1518 1520 1522 1525 1528 1530 1532 1535 1536 1538 1539 1540 1540 1541 1541 1541 1541 1541 1541 1541 1542 1542 1542 1542 1542 1542 1542 1541 1540 1540 1539 1539 1538
1503 1511 1513 1532 1540 1548 1540 1527 1511 1498 1499 1500 1503 1506 1508 1511 1514 1516 1519 1522 1524 1526 1529 1531 1533 1535 1536 1537 1537 1538 1538 1539 1539 1539 1539 1539 1539 1540 1540 1540 1540 1540 1539 1539 1538 1537 1537 1537 1536
1496 1502 1516 1530 1546 1552 1542 1533 1524 1506 1502 1500 1501 1502 1504 1507 1509 1512 1515 1517 1520 1523 1525 1528 1530 1531 1533 1534 1534 1535 1536 1536 1537 1537 1537 1537 1537 1537 1537 1537 1537 1537 1536 1536 1535 1534 1534 1533 1533
1499 1503 1512 1525 1531 1546 1550 1534 1500 1497 1495 1496 1496 1497 1499 1502 1504 1507 1510 1513 1517 1520 1522 1524 1526 1528 1529 1531 1532 1532 1533 1534 1534 1534 1534 1534 1534 1534 1534 1534 1534 1533 1533 1532 1531 1531 1530 1530 1529
1495 1500 1509 1525 1528 1530 1537 1525 1484 1485 1486 1489 1490 1492 1495 1497 1500 1503 1507 1510 1513 1516 1518 1520 1522 1524 1526 1527 1529 1529 1530 1531 1531 1531 1531 1531 1531 1531 1530 1530 1530 1529 1528 1528 1527 1526 1526 1525 1525